Weather History for San Jose, CA

Change the Weather History Date:

Sunday, February 16, 2014

  Actual Average Record
Temperature  
Mean Temperature 55 °F 55 °F  
Max Temperature 63 °F 64 °F 75 °F (1997)
Min Temperature 47 °F 46 °F 30 °F (1894)
Degree Days  
Heating Degree Days 10 10  
Month to date heating degree days 187 183  
Since 1 July heating degree days 1434 1352  
Cooling Degree Days 0 0  
Month to date cooling degree days 0 0  
Year to date cooling degree days 0 0  
Growing Degree Days 6 (Base 50)    
Moisture  
Dew Point 45 °F    
Average Humidity 67    
Maximum Humidity 100    
Minimum Humidity 34    
Precipitation  
Precipitation 0.04 in 0.13 in 1.09 in (1959)
Month to date precipitation 0.98 1.75  
Year to date precipitation 1.10 4.74  
Since 1 July precipitation 2.66 9.75  
Sea Level Pressure  
Sea Level Pressure 30.13 in    
Wind  
Wind Speed 5 mph (NW)    
Max Wind Speed 14 mph    
Max Gust Speed 23 mph    
Visibility 9 miles    
Events Rain    
T = Trace of Precipitation, MM = Missing Value Source: NWS Daily Summary

Daily Weather History Graph

Daily Weather History Graph

Search for Another Location

Airport:

Trip Planner

Search our weather history database for the weather conditions in past years. The results will help you decide how hot, cold, wet, or windy it might be!

Date:

Astronomy

Feb. 16, 2014 Rise Set
Actual Time 6:55 AM PST 5:48 PM PST
Civil Twilight 6:28 AM PST 6:15 PM PST
Nautical Twilight 5:58 AM PST 6:45 PM PST
Astronomical Twilight 5:28 AM PST 7:16 PM PST
Moon 7:46 PM PST (2/16) 7:31 AM PST (2/16)
Length of Visible Light 11h 46m
Length of Day
10h 53m
Full, 97% of the Moon is Illuminated
Feb 16
Full
Feb 22
Last Quarter
Mar 1
New
Mar 8
First Quarter
Mar 16
Full

Hourly Weather History & Observations

Time (PST) Temp. Dew Point Humidity Pressure Visibility Wind Dir Wind Speed Gust Speed Precip Events Conditions
12:53 AM 55.0 °F 52.0 °F 89% 30.05 in 10.0 mi SE 9.2 mph - 0.00 in   Mostly Cloudy
1:53 AM 55.0 °F 52.0 °F 89% 30.06 in 10.0 mi ESE 5.8 mph - N/A   Overcast
2:46 AM 55.4 °F 51.8 °F 88% 30.07 in 10.0 mi Calm Calm - N/A   Overcast
2:53 AM 55.0 °F 52.0 °F 89% 30.07 in 9.0 mi Calm Calm - N/A   Overcast
3:11 AM 53.6 °F 53.6 °F 100% 30.08 in 4.0 mi NNW 6.9 mph - 0.01 in Rain Light Rain
3:18 AM 53.6 °F 53.6 °F 100% 30.08 in 2.5 mi NNW 4.6 mph - 0.02 in Rain Light Rain
3:34 AM 53.6 °F 53.6 °F 100% 30.08 in 4.0 mi NW 4.6 mph - 0.03 in Rain Light Rain
3:53 AM 54.0 °F 54.0 °F 100% 30.08 in 10.0 mi NNW 4.6 mph - 0.04 in   Overcast
4:05 AM 53.6 °F 53.6 °F 100% 30.08 in 10.0 mi WNW 8.1 mph - N/A   Overcast
4:13 AM 53.6 °F 53.6 °F 100% 30.09 in 10.0 mi WNW 8.1 mph - N/A   Overcast
4:53 AM 52.0 °F 52.0 °F 100% 30.10 in 10.0 mi NW 8.1 mph - N/A   Partly Cloudy
5:42 AM 51.8 °F 48.2 °F 88% 30.12 in 10.0 mi WNW 6.9 mph - N/A   Mostly Cloudy
5:53 AM 51.1 °F 48.9 °F 92% 30.12 in 10.0 mi WNW 4.6 mph - N/A   Mostly Cloudy
6:06 AM 51.8 °F 48.2 °F 88% 30.12 in 10.0 mi West 5.8 mph - N/A   Partly Cloudy
6:46 AM 51.8 °F 48.2 °F 88% 30.15 in 10.0 mi Calm Calm - N/A   Mostly Cloudy
6:53 AM 51.1 °F 48.0 °F 89% 30.15 in 10.0 mi Calm Calm - N/A   Mostly Cloudy
7:53 AM 51.1 °F 46.0 °F 83% 30.18 in 10.0 mi Calm Calm - N/A   Scattered Clouds
8:53 AM 54.0 °F 46.9 °F 77% 30.20 in 10.0 mi Calm Calm - N/A   Partly Cloudy
9:53 AM 55.9 °F 46.9 °F 72% 30.21 in 10.0 mi Calm Calm - N/A   Partly Cloudy
10:53 AM 60.1 °F 44.1 °F 55% 30.20 in 10.0 mi NW 5.8 mph - N/A   Partly Cloudy
11:53 AM 62.1 °F 35.1 °F 37% 30.19 in 10.0 mi NW 8.1 mph - N/A   Mostly Cloudy
12:53 PM 63.0 °F 33.1 °F 33% 30.17 in 10.0 mi NW 9.2 mph - N/A   Scattered Clouds
1:53 PM 63.0 °F 34.0 °F 34% 30.15 in 10.0 mi WNW 11.5 mph - N/A   Scattered Clouds
2:53 PM 63.0 °F 39.0 °F 41% 30.14 in 10.0 mi WNW 12.7 mph - N/A   Mostly Cloudy
3:53 PM 62.1 °F 35.1 °F 37% 30.12 in 10.0 mi West 8.1 mph - N/A   Mostly Cloudy
4:53 PM 61.0 °F 34.0 °F 36% 30.11 in 10.0 mi WNW 8.1 mph - N/A   Mostly Cloudy
5:53 PM 59.0 °F 33.1 °F 38% 30.12 in 10.0 mi WNW 5.8 mph - N/A   Mostly Cloudy
6:53 PM 55.9 °F 33.1 °F 42% 30.13 in 10.0 mi WNW 4.6 mph - N/A   Partly Cloudy
7:53 PM 55.0 °F 42.1 °F 62% 30.14 in 10.0 mi NNW 8.1 mph - N/A   Partly Cloudy
8:53 PM 53.1 °F 44.1 °F 71% 30.15 in 10.0 mi NW 5.8 mph - N/A   Partly Cloudy
9:53 PM 51.1 °F 43.0 °F 74% 30.16 in 10.0 mi Calm Calm - N/A   Partly Cloudy
10:53 PM 50.0 °F 39.0 °F 66% 30.15 in 10.0 mi Calm Calm - N/A   Partly Cloudy
11:53 PM 48.0 °F 39.9 °F 74% 30.13 in 10.0 mi Calm Calm - N/A   Clear